Location: Ch�risy
(50.2331°N, 2.9131°E)
Time: 20:14:56
(UTC+00:00)

Meteor 2-1 Rocket - Pass Details

Date: 17 January 2021
Orbit: 827 x 910 km, 81.3° (Epoch: 27 February)

Event Time Altitude Azimuth Distance (km) Brightness Sun altitude
Rises 18:59:15 0° 345° (NNW) 3,439 7.5 -25.3°
Reaches altitude 10° 19:01:43 10° 343° (NNW) 2,487 6.8 -25.7°
Maximum altitude 19:07:17 67° 263° (W) 906 4.4 -26.5°
Drops below altitude 10° 19:12:44 10° 181° (S) 2,432 6.6 -27.4°
Sets 19:15:07 0° 179° (S) 3,356 7.3 -27.8°
